Weather History for KPEO - January, 2013

Change the Weather History Date:

Saturday, January 19, 2013

  Actual Average (KITH) Record (KITH)
Temperature  
Mean Temperature 39 °F -  
Max Temperature 48 °F 28 °F 63 °F (1933)
Min Temperature 30 °F 13 °F -20 °F (1976)
Degree Days  
Heating Degree Days 26    
Moisture  
Dew Point 20 °F    
Average Humidity 41    
Maximum Humidity 48    
Minimum Humidity 34    
Precipitation  
Precipitation 0.00 in - - ()
Sea Level Pressure  
Sea Level Pressure 29.93 in    
Wind  
Wind Speed 15 mph (SSW)    
Max Wind Speed 22 mph    
Max Gust Speed 31 mph    
Visibility 10 miles    
Events      
Averages and records for this station are not official NWS values.
T = Trace of Precipitation, MM = Missing Value Source: NWS Daily Summary

Daily Weather History Graph

Daily Weather History Graph

Search for Another Location

Airport or City:

Trip Planner

Search our weather history database for the weather conditions in past years. The results will help you decide how hot, cold, wet, or windy it might be!

Date:

Astronomy

Jan. 19, 2013 Rise Set
Actual Time 7:33 AM EST 5:05 PM EST
Civil Twilight 7:02 AM EST 5:36 PM EST
Nautical Twilight 6:27 AM EST 6:10 PM EST
Astronomical Twilight 5:54 AM EST 6:44 PM EST
Moon 11:31 AM EST (1/19) 1:03 AM EST (1/19)
Length of Visible Light 10h 33m
Length of Day
9h 32m
First Quarter, 57% of the Moon is Illuminated
Jan 19
First Quarter
Jan 26
Full
Feb 3
Last Quarter
Feb 10
New
Feb 17
First Quarter

Hourly Weather History & Observations

Time (EST) Temp. Windchill Dew Point Humidity Pressure Visibility Wind Dir Wind Speed Gust Speed Precip Events Conditions
12:53 AM 30.9 °F 18.1 °F 12.0 °F 46% 30.08 in 10.0 mi SSW 21.9 mph 31.1 mph N/A   Overcast
1:53 AM 33.1 °F 23.0 °F 10.9 °F 40% 30.08 in 10.0 mi SSW 15.0 mph 24.2 mph N/A   Overcast
2:53 AM 34.0 °F 25.0 °F 10.9 °F 38% 30.08 in 10.0 mi South 12.7 mph 19.6 mph N/A   Partly Cloudy
3:53 AM 34.0 °F 23.8 °F 12.0 °F 40% 30.04 in 10.0 mi South 16.1 mph 21.9 mph N/A   Clear
4:53 AM 35.1 °F 25.5 °F 12.9 °F 40% 30.03 in 10.0 mi SSW 15.0 mph - N/A   Clear
5:53 AM 35.1 °F 26.4 °F 15.1 °F 44% 30.02 in 10.0 mi SSW 12.7 mph - N/A   Clear
6:53 AM 36.0 °F 27.1 °F 16.0 °F 44% 30.01 in 10.0 mi South 13.8 mph - N/A   Clear
7:53 AM 36.0 °F 27.1 °F 16.0 °F 44% 30.00 in 10.0 mi South 13.8 mph 20.7 mph N/A   Clear
8:53 AM 37.0 °F 28.1 °F 17.1 °F 44% 30.01 in 10.0 mi SSW 15.0 mph 24.2 mph N/A   Clear
9:53 AM 39.0 °F 31.4 °F 18.0 °F 43% 30.01 in 10.0 mi SSW 12.7 mph 21.9 mph N/A   Clear
10:53 AM 44.1 °F 35.9 °F 23.0 °F 43% 30.00 in 10.0 mi SW 19.6 mph 25.3 mph N/A   Clear
11:53 AM 46.0 °F 39.6 °F 25.0 °F 44% 29.96 in 10.0 mi SSW 15.0 mph 29.9 mph N/A   Clear
12:53 PM 45.0 °F 38.5 °F 26.1 °F 48% 29.95 in 10.0 mi SW 13.8 mph - N/A   Clear
1:53 PM 48.0 °F - 27.0 °F 44% 29.92 in 10.0 mi SW 11.5 mph - N/A   Clear
2:53 PM 48.9 °F - 26.1 °F 41% 29.90 in 10.0 mi SSW 10.4 mph 20.7 mph N/A   Overcast
3:53 PM 48.0 °F - 26.1 °F 42% 29.88 in 10.0 mi SW 11.5 mph 20.7 mph N/A   Partly Cloudy
4:53 PM 46.9 °F - 25.0 °F 42% 29.86 in 10.0 mi SSW 12.7 mph - N/A   Clear
5:53 PM 46.9 °F - 25.0 °F 42% 29.83 in 10.0 mi South 10.4 mph - N/A   Scattered Clouds
6:53 PM 46.0 °F 39.9 °F 24.1 °F 42% 29.79 in 10.0 mi SSW 13.8 mph 21.9 mph N/A   Mostly Cloudy
7:53 PM 46.0 °F 39.0 °F 19.9 °F 35% 29.77 in 10.0 mi SSW 17.3 mph 24.2 mph N/A   Scattered Clouds
8:53 PM 46.9 °F - 21.0 °F 36% 29.75 in 10.0 mi SSW 12.7 mph - N/A   Clear
9:53 PM 48.0 °F - 21.0 °F 34% 29.73 in 10.0 mi South 12.7 mph 19.6 mph N/A   Overcast
10:53 PM 48.0 °F - 21.0 °F 34% 29.69 in 10.0 mi SSW 15.0 mph - N/A   Partly Cloudy